Flag for Congo Weather past 2 weeks in Brazzaville, Congo

Now
93 °F

Passing clouds.


Feels Like: 99 °F
Forecast: 73 / 85 °F
Wind: 6 mph from West

Location: Brazzaville / Maya-Maya

Current Time: Mar 1, 2015 at 4:37:04 PM

Latest Report: Mar 1, 2015 at 4:00 PM


Visibility: N/A

Pressure: 29.74 "Hg

Humidity: 47%

Dew point: 70 °F

Location of BrazzavilleLocation

Historic Weather in Brazzaville — Graph

°F

Brazzaville temperature yesterday

Maximum temperature yesterday: 88 °F (at 2:00 PM)
Minimum temperature yesterday: 72 °F (at 12:00 AM)
Average temperature yesterday: 79 °F

Past Weeks' High & Low Weather Summary

 TemperatureHumidityPressure
High95 °F (Feb 16, 3:00 PM)100% (Feb 17, 3:00 AM)30.04 "Hg (Feb 17, 3:00 AM)
Low68 °F (Feb 20, 7:58 AM)44% (Feb 16, 3:00 PM)29.74 "Hg (Feb 18, 4:00 PM)
Average79 °F79%29.88 "Hg
* Reported Feb 14 3:00 PM — Mar 1 3:00 PM, Brazzaville, Weather by CustomWeather, © 2015

Note: Actual official high and low records may vary slightly from our data, if they occured in-between our weather recording intervals... More about our weather records

Advertising

Brazzaville weather history for previous 24 hours

 ConditionsComfort  
Time TempWeatherWind HumidityBarometerVisibility
3:00 PM
Sun, Mar 1
93 °FScattered clouds.5 mph47%29.77 "HgN/A
2:00 PM91 °FScattered clouds.6 mph49%29.80 "HgN/A
1:00 PM90 °FScattered clouds.6 mph55%29.83 "Hg6 mi
12:00 PM88 °FScattered clouds.3 mph62%29.89 "Hg6 mi
11:00 AM84 °FScattered clouds.6 mph70%29.95 "Hg6 mi
10:00 AM82 °FScattered clouds.6 mph74%29.95 "Hg6 mi
9:00 AM81 °FPassing clouds.3 mph79%29.98 "Hg6 mi
8:00 AM79 °FPassing clouds.3 mph84%29.95 "Hg6 mi
7:00 AM73 °FPassing clouds.3 mph94%29.92 "Hg6 mi
6:00 AM73 °FPassing clouds.1 mph100%29.89 "Hg6 mi
5:00 AM75 °FPassing clouds.3 mph94%29.89 "Hg6 mi
4:00 AM75 °FPassing clouds.2 mph94%29.89 "Hg5 mi
3:00 AM75 °FPassing clouds.2 mph94%29.89 "Hg5 mi
2:00 AM75 °FClear.1 mph94%29.89 "Hg6 mi
1:00 AM75 °FClear.2 mph94%29.89 "Hg6 mi
12:00 AM77 °FClear.5 mph89%29.89 "Hg6 mi
10:00 PM
Sat, Feb 28
79 °FClear.3 mph84%29.89 "Hg6 mi
9:00 PM81 °FClear.No wind79%29.86 "Hg6 mi
8:00 PM82 °FClear.1 mph70%29.86 "Hg6 mi
6:00 PM86 °FPassing clouds.5 mph62%29.80 "HgN/A
5:00 PM88 °FPassing clouds.3 mph55%29.80 "HgN/A
Weather by CustomWeather, © 2015

See weather overviewHow to use our weather pages